User: anonymous   Login
Location: Rancho Del Sol Observatory
(38.7214°N, 120.6350°W)
Time: 11:31:31
(UTC-08:00)
Language:

Tiros 1 despin weight - Orbit

View from above orbital plane
View from above orbital plane
View from above satellite
View from above satellite

Ground track
Ground track

The orbit data is extracted from the following two-line orbital elements,

1   115U 60002D   20024.04914698 -.00000084  00000-0  17080-4 0  9997
2   115  48.1657 253.3970 0034924 327.8925  31.9861 14.83528227191389
Epoch (UTC): 24 January 2020 01:10:46
Eccentricity: 0.0034924
inclination: 48.1657°
perigee height: 594 km
apogee height: 642 km
right ascension of ascending node: 253.3970°
argument of perigee: 327.8925°
revolutions per day: 14.83528227
mean anomaly at epoch: 31.9861°
orbit number at epoch: 19138

The dashed part of the orbit path shows where the satellite is in the earth's shadow,  

DLR